Colorado Springs, CO

10:42 AM MDT on August 20, 2017 (GMT -0600)
City Of Colorado Springs Municipal

Weather History for KCOS - April, 2012

Change the Weather History Date:

Saturday, April 28, 2012

  Actual Average Record
Temperature  
Mean Temperature 47 °F 50 °F  
Max Temperature 58 °F 64 °F 81 °F (1910)
Min Temperature 36 °F 37 °F 20 °F (1984)
Degree Days  
Heating Degree Days 18 15  
Month to date heating degree days 351 525  
Since 1 July heating degree days 5091 5893  
Cooling Degree Days 0 0  
Month to date cooling degree days 2 0  
Year to date cooling degree days 2 0  
Moisture  
Dew Point 24 °F    
Average Humidity 45    
Maximum Humidity 64    
Minimum Humidity 25    
Precipitation  
Precipitation 0.00 in 0.06 in 1.06 in (1941)
Month to date precipitation 0.85 1.30  
Year to date precipitation 1.22 2.96  
Snow  
Snow 0.00 in 0.20 in 1.70 in (1958)
Month to date snowfall T 4.7  
Since 1 July snowfall 21.7 36.8  
Snow Depth 0.00 in    
Sea Level Pressure  
Sea Level Pressure 29.89 in    
Wind  
Wind Speed 15 mph (SSE)    
Max Wind Speed 32 mph    
Max Gust Speed 39 mph    
Visibility 10 miles    
Events      
T = Trace of Precipitation, MM = Missing Value Source: NWS Daily Summary

Daily Weather History Graph

Daily Weather History Graph

Search for Another Location

Airport or City:

Trip Planner

Search our weather history database for the weather conditions in past years. The results will help you decide how hot, cold, wet, or windy it might be!

Date:

Astronomy

Apr. 28, 2012 Rise Set
Actual Time 6:04 AM MDT 7:48 PM MDT
Civil Twilight 5:35 AM MDT 8:17 PM MDT
Nautical Twilight 5:01 AM MDT 8:52 PM MDT
Astronomical Twilight 4:24 AM MDT 9:29 PM MDT
Moon 11:46 AM MDT (4/28) 1:14 AM MDT (4/28)
Length of Visible Light 14h 41m
Length of Day
13h 44m
Waxing Crescent, 43% of the Moon is Illuminated
Apr 28
Waxing Crescent
Apr 29
First Quarter
May 5
Full
May 12
Last Quarter
May 20
New

Hourly Weather History & Observations

Time (MDT) Temp. Windchill Dew Point Humidity Pressure Visibility Wind Dir Wind Speed Gust Speed Precip Events Conditions
12:54 AM 41.0 °F 32.8 °F 26.1 °F 55% 29.80 in 10.0 mi ENE 16.1 mph 19.6 mph N/A   Partly Cloudy
1:54 AM 39.9 °F 33.4 °F 24.1 °F 53% 29.80 in 10.0 mi ENE 10.4 mph - N/A   Partly Cloudy
2:54 AM 37.9 °F 32.7 °F 25.0 °F 60% 29.80 in 10.0 mi South 6.9 mph - N/A   Partly Cloudy
3:54 AM 37.9 °F 31.5 °F 27.0 °F 65% 29.78 in 10.0 mi SSE 9.2 mph - N/A   Clear
4:54 AM 37.9 °F 29.6 °F 25.0 °F 60% 29.80 in 10.0 mi South 13.8 mph - N/A   Partly Cloudy
5:54 AM 37.9 °F 26.8 °F 25.0 °F 60% 29.82 in 10.0 mi SSW 24.2 mph - N/A   Partly Cloudy
6:54 AM 37.9 °F 30.9 °F 24.1 °F 57% 29.89 in 10.0 mi East 10.4 mph - N/A   Clear
7:54 AM 39.9 °F 32.9 °F 23.0 °F 51% 29.94 in 10.0 mi SE 11.5 mph - N/A   Clear
8:54 AM 44.1 °F 38.6 °F 24.1 °F 45% 29.94 in 10.0 mi South 10.4 mph 20.7 mph N/A   Partly Cloudy
9:54 AM 46.9 °F - 24.1 °F 41% 29.93 in 10.0 mi SSE 13.8 mph - N/A   Partly Cloudy
10:54 AM 48.9 °F - 23.0 °F 36% 29.91 in 10.0 mi SSW 11.5 mph - N/A   Partly Cloudy
11:54 AM 52.0 °F - 21.9 °F 31% 29.91 in 10.0 mi SSE 21.9 mph 29.9 mph N/A   Partly Cloudy
12:54 PM 53.1 °F - 21.9 °F 30% 29.91 in 10.0 mi SSE 20.7 mph 29.9 mph N/A   Partly Cloudy
1:54 PM 55.9 °F - 23.0 °F 28% 29.89 in 10.0 mi SSE 17.3 mph 28.8 mph N/A   Partly Cloudy
2:54 PM 55.9 °F - 23.0 °F 28% 29.88 in 10.0 mi SSE 23.0 mph 28.8 mph N/A   Partly Cloudy
3:54 PM 57.0 °F - 23.0 °F 27% 29.86 in 10.0 mi SE 21.9 mph 32.2 mph N/A   Scattered Clouds
4:54 PM 57.0 °F - 23.0 °F 27% 29.86 in 10.0 mi SE 21.9 mph 32.2 mph N/A   Scattered Clouds
5:54 PM 55.9 °F - 21.9 °F 27% 29.88 in 10.0 mi SE 24.2 mph 29.9 mph N/A   Mostly Cloudy
6:54 PM 52.0 °F - 27.0 °F 38% 29.93 in 10.0 mi South 23.0 mph 29.9 mph N/A   Scattered Clouds
7:54 PM 50.0 °F - 25.0 °F 38% 29.94 in 10.0 mi SSE 18.4 mph 26.5 mph N/A   Scattered Clouds
8:54 PM 46.9 °F - 26.1 °F 44% 29.96 in 10.0 mi SSE 8.1 mph - N/A   Scattered Clouds
9:54 PM 45.0 °F 40.1 °F 25.0 °F 46% 29.98 in 10.0 mi ESE 9.2 mph - N/A   Partly Cloudy
10:54 PM 45.0 °F 40.1 °F 27.0 °F 49% 29.97 in 10.0 mi South 9.2 mph - N/A   Partly Cloudy
11:54 PM 44.6 °F 41.4 °F 26.6 °F 49% 30.03 in 10.0 mi SSE 5.8 mph - N/A   Overcast